Time,TemperatureF,DewpointF,PressureIn,WindDirection,WindDirectionDegrees,WindSpeedMPH,WindSpeedGustMPH,Humidity,HourlyPrecipIn,Conditions,Clouds,dailyrainin,SoftwareType,DateUTC
2013-07-23 00:01:00,68.0,67.4,29.94,WSW,250,0.0,2.0,98,0.00,,,0.00,Wunderground v.1.15,2013-07-23 04:01:00,
2013-07-23 00:02:00,67.9,67.3,29.94,WSW,248,1.0,2.0,98,0.00,,,0.00,Wunderground v.1.15,2013-07-23 04:02:00,
2013-07-23 00:04:00,67.9,67.3,29.94,SSW,213,1.0,4.0,98,0.00,,,0.00,Wunderground v.1.15,2013-07-23 04:04:00,
2013-07-23 00:05:00,67.9,67.3,29.94,SSW,213,1.0,4.0,98,0.00,,,0.00,Wunderground v.1.15,2013-07-23 04:05:00,
2013-07-23 00:09:00,67.8,67.2,29.94,SSW,212,1.0,4.0,98,0.00,,,0.00,Wunderground v.1.15,2013-07-23 04:09:00,
2013-07-23 00:14:00,67.7,67.1,29.94,SSW,212,1.0,1.0,98,0.00,,,0.00,Wunderground v.1.15,2013-07-23 04:14:00,
2013-07-23 00:19:00,67.7,67.1,29.94,SSW,212,0.0,1.0,98,0.00,,,0.00,Wunderground v.1.15,2013-07-23 04:19:00,
2013-07-23 00:24:00,67.6,67.0,29.94,SSW,212,0.0,0.0,98,0.00,,,0.00,Wunderground v.1.15,2013-07-23 04:24:00,
2013-07-23 00:30:00,67.5,66.9,29.94,SSW,212,0.0,0.0,98,0.00,,,0.00,Wunderground v.1.15,2013-07-23 04:30:00,
2013-07-23 00:36:00,67.6,67.3,29.93,WNW,290,1.0,2.0,99,0.00,,,0.00,Wunderground v.1.15,2013-07-23 04:36:00,
2013-07-23 00:41:00,67.5,67.2,29.94,WNW,293,1.0,4.0,99,0.00,,,0.00,Wunderground v.1.15,2013-07-23 04:41:00,
2013-07-23 00:46:00,67.3,67.0,29.94,West,277,2.0,4.0,99,0.00,,,0.00,Wunderground v.1.15,2013-07-23 04:46:00,
2013-07-23 00:51:00,67.2,66.6,29.93,West,271,2.0,2.0,98,0.00,,,0.00,Wunderground v.1.15,2013-07-23 04:51:00,
2013-07-23 00:56:00,67.2,66.9,29.93,West,277,2.0,2.0,99,0.00,,,0.00,Wunderground v.1.15,2013-07-23 04:56:00,
2013-07-23 01:02:00,67.1,66.8,29.93,West,281,1.0,2.0,99,0.00,,,0.00,Wunderground v.1.15,2013-07-23 05:02:00,
2013-07-23 01:07:00,67.0,66.4,29.92,West,281,1.0,2.0,98,0.00,,,0.00,Wunderground v.1.15,2013-07-23 05:07:00,
2013-07-23 01:12:00,67.0,66.4,29.92,West,281,1.0,2.0,98,0.00,,,0.00,Wunderground v.1.15,2013-07-23 05:12:00,
2013-07-23 01:17:00,66.9,66.6,29.92,West,281,1.0,2.0,99,0.00,,,0.00,Wunderground v.1.15,2013-07-23 05:17:00,
2013-07-23 01:22:00,66.8,66.2,29.92,WNW,284,1.0,2.0,98,0.00,,,0.00,Wunderground v.1.15,2013-07-23 05:22:00,
2013-07-23 01:28:00,66.7,66.1,29.92,WNW,284,1.0,2.0,98,0.00,,,0.00,Wunderground v.1.15,2013-07-23 05:28:00,
2013-07-23 01:33:00,66.6,66.0,29.92,WNW,284,0.0,2.0,98,0.00,,,0.00,Wunderground v.1.15,2013-07-23 05:33:00,
2013-07-23 01:38:00,66.5,65.9,29.92,WNW,284,0.0,2.0,98,0.00,,,0.00,Wunderground v.1.15,2013-07-23 05:38:00,
2013-07-23 01:43:00,66.4,65.8,29.92,NW,306,1.0,2.0,98,0.00,,,0.00,Wunderground v.1.15,2013-07-23 05:43:00,
2013-07-23 01:49:00,66.3,65.7,29.91,NNW,345,2.0,5.0,98,0.00,,,0.00,Wunderground v.1.15,2013-07-23 05:49:00,
2013-07-23 01:55:00,66.3,65.7,29.91,NW,319,2.0,4.0,98,0.00,,,0.00,Wunderground v.1.15,2013-07-23 05:55:00,
2013-07-23 02:00:00,66.2,65.6,29.91,NW,320,1.0,2.0,98,0.00,,,0.00,Wunderground v.1.15,2013-07-23 06:00:00,
2013-07-23 02:05:00,66.1,65.5,29.91,NNE,14,1.0,3.0,98,0.00,,,0.00,Wunderground v.1.15,2013-07-23 06:05:00,
2013-07-23 02:10:00,66.1,65.5,29.91,NW,325,1.0,1.0,98,0.00,,,0.00,Wunderground v.1.15,2013-07-23 06:10:00,
2013-07-23 02:15:00,66.0,65.4,29.91,NNW,327,0.0,2.0,98,0.00,,,0.00,Wunderground v.1.15,2013-07-23 06:15:00,
2013-07-23 02:20:00,65.9,65.3,29.91,NNW,337,1.0,2.0,98,0.00,,,0.00,Wunderground v.1.15,2013-07-23 06:20:00,
2013-07-23 02:26:00,65.8,64.9,29.91,WNW,298,2.0,4.0,97,0.00,,,0.00,Wunderground v.1.15,2013-07-23 06:26:00,
2013-07-23 02:31:00,65.9,65.0,29.90,NW,319,2.0,5.0,97,0.00,,,0.00,Wunderground v.1.15,2013-07-23 06:31:00,
2013-07-23 02:36:00,66.0,64.8,29.90,NNW,335,2.0,5.0,96,0.00,,,0.00,Wunderground v.1.15,2013-07-23 06:36:00,
2013-07-23 02:41:00,66.1,64.6,29.90,NW,316,2.0,2.0,95,0.00,,,0.00,Wunderground v.1.15,2013-07-23 06:41:00,
2013-07-23 02:46:00,66.2,64.7,29.90,NW,316,1.0,2.0,95,0.00,,,0.00,Wunderground v.1.15,2013-07-23 06:46:00,
2013-07-23 02:51:00,66.0,64.5,29.90,NE,38,1.0,2.0,95,0.00,,,0.00,Wunderground v.1.15,2013-07-23 06:51:00,
2013-07-23 02:57:00,65.9,64.4,29.90,NE,39,1.0,2.0,95,0.00,,,0.00,Wunderground v.1.15,2013-07-23 06:57:00,
2013-07-23 03:02:00,65.8,64.6,29.90,NE,39,0.0,2.0,96,0.00,,,0.00,Wunderground v.1.15,2013-07-23 07:02:00,
2013-07-23 03:07:00,65.6,64.4,29.90,ENE,65,0.0,2.0,96,0.00,,,0.00,Wunderground v.1.15,2013-07-23 07:07:00,
2013-07-23 03:12:00,65.4,64.2,29.90,SSW,194,1.0,2.0,96,0.00,,,0.00,Wunderground v.1.15,2013-07-23 07:12:00,
2013-07-23 03:17:00,65.4,64.2,29.89,SSW,213,2.0,4.0,96,0.00,,,0.00,Wunderground v.1.15,2013-07-23 07:17:00,
2013-07-23 03:23:00,65.6,64.4,29.90,West,275,3.0,4.0,96,0.00,,,0.00,Wunderground v.1.15,2013-07-23 07:23:00,
2013-07-23 03:28:00,65.5,64.3,29.90,WNW,287,2.0,5.0,96,0.00,,,0.00,Wunderground v.1.15,2013-07-23 07:28:00,
2013-07-23 03:33:00,65.5,64.3,29.90,West,278,2.0,4.0,96,0.00,,,0.00,Wunderground v.1.15,2013-07-23 07:33:00,
2013-07-23 03:38:00,65.5,64.3,29.90,West,275,2.0,4.0,96,0.00,,,0.00,Wunderground v.1.15,2013-07-23 07:38:00,
2013-07-23 03:44:00,65.5,64.3,29.90,West,275,2.0,2.0,96,0.00,,,0.00,Wunderground v.1.15,2013-07-23 07:44:00,
2013-07-23 03:49:00,65.4,64.2,29.91,WNW,290,2.0,5.0,96,0.00,,,0.00,Wunderground v.1.15,2013-07-23 07:49:00,
2013-07-23 03:54:00,65.4,64.2,29.91,NW,313,2.0,5.0,96,0.00,,,0.00,Wunderground v.1.15,2013-07-23 07:54:00,
2013-07-23 04:00:00,65.4,64.2,29.91,NW,310,2.0,2.0,96,0.00,,,0.00,Wunderground v.1.15,2013-07-23 08:00:00,
2013-07-23 04:06:00,65.4,64.2,29.91,WNW,286,2.0,5.0,96,0.00,,,0.00,Wunderground v.1.15,2013-07-23 08:06:00,
2013-07-23 04:11:00,65.4,64.2,29.90,WNW,295,2.0,2.0,96,0.00,,,0.00,Wunderground v.1.15,2013-07-23 08:11:00,
2013-07-23 04:16:00,65.5,64.0,29.91,WNW,289,2.0,5.0,95,0.00,,,0.00,Wunderground v.1.15,2013-07-23 08:16:00,
2013-07-23 04:22:00,65.8,64.0,29.90,WNW,282,3.0,5.0,94,0.00,,,0.00,Wunderground v.1.15,2013-07-23 08:22:00,
2013-07-23 04:28:00,66.0,64.2,29.90,WNW,294,3.0,5.0,94,0.00,,,0.00,Wunderground v.1.15,2013-07-23 08:28:00,
2013-07-23 04:33:00,66.1,64.3,29.90,WNW,288,3.0,5.0,94,0.00,,,0.00,Wunderground v.1.15,2013-07-23 08:33:00,
2013-07-23 04:38:00,66.1,64.3,29.91,West,268,3.0,5.0,94,0.00,,,0.00,Wunderground v.1.15,2013-07-23 08:38:00,
2013-07-23 04:43:00,66.1,64.3,29.91,SW,224,2.0,3.0,94,0.00,,,0.00,Wunderground v.1.15,2013-07-23 08:43:00,
2013-07-23 04:49:00,66.0,64.2,29.91,WSW,243,2.0,4.0,94,0.00,,,0.00,Wunderground v.1.15,2013-07-23 08:49:00,
2013-07-23 04:55:00,65.9,64.1,29.91,SW,217,2.0,4.0,94,0.00,,,0.00,Wunderground v.1.15,2013-07-23 08:55:00,
2013-07-23 05:00:00,65.9,64.4,29.91,SW,227,2.0,4.0,95,0.00,,,0.00,Wunderground v.1.15,2013-07-23 09:00:00,
2013-07-23 05:05:00,65.8,64.3,29.91,WNW,295,2.0,4.0,95,0.00,,,0.00,Wunderground v.1.15,2013-07-23 09:05:00,
2013-07-23 05:11:00,65.8,64.3,29.91,WNW,285,3.0,5.0,95,0.00,,,0.00,Wunderground v.1.15,2013-07-23 09:11:00,
2013-07-23 05:16:00,65.7,64.2,29.91,WNW,283,4.0,6.0,95,0.00,,,0.00,Wunderground v.1.15,2013-07-23 09:16:00,
2013-07-23 05:22:00,65.8,64.3,29.91,WNW,297,4.0,5.0,95,0.00,,,0.00,Wunderground v.1.15,2013-07-23 09:22:00,
2013-07-23 05:27:00,65.8,64.3,29.91,WNW,284,4.0,6.0,95,0.00,,,0.00,Wunderground v.1.15,2013-07-23 09:27:00,
2013-07-23 05:32:00,65.9,64.4,29.91,NW,307,4.0,5.0,95,0.00,,,0.00,Wunderground v.1.15,2013-07-23 09:32:00,
2013-07-23 05:37:00,65.9,64.4,29.91,NNW,332,3.0,6.0,95,0.00,,,0.00,Wunderground v.1.15,2013-07-23 09:37:00,
2013-07-23 05:42:00,66.0,64.5,29.91,WNW,285,4.0,6.0,95,0.00,,,0.00,Wunderground v.1.15,2013-07-23 09:42:00,
2013-07-23 05:47:00,66.3,64.8,29.91,WNW,290,5.0,6.0,95,0.00,,,0.00,Wunderground v.1.15,2013-07-23 09:47:00,
2013-07-23 05:53:00,66.5,64.7,29.92,WNW,294,4.0,8.0,94,0.00,,,0.00,Wunderground v.1.15,2013-07-23 09:53:00,
2013-07-23 05:58:00,66.7,64.9,29.92,NNW,330,4.0,8.0,94,0.00,,,0.00,Wunderground v.1.15,2013-07-23 09:58:00,
2013-07-23 06:03:00,66.8,64.7,29.92,West,281,4.0,7.0,93,0.00,,,0.00,Wunderground v.1.15,2013-07-23 10:03:00,
2013-07-23 06:08:00,66.9,64.8,29.92,WNW,303,4.0,7.0,93,0.00,,,0.00,Wunderground v.1.15,2013-07-23 10:08:00,
2013-07-23 06:13:00,66.8,64.7,29.92,NW,304,2.0,3.0,93,0.00,,,0.00,Wunderground v.1.15,2013-07-23 10:13:00,
2013-07-23 06:18:00,66.7,64.6,29.92,NW,315,3.0,5.0,93,0.00,,,0.00,Wunderground v.1.15,2013-07-23 10:18:00,
2013-07-23 06:23:00,66.7,64.6,29.92,NW,322,4.0,4.0,93,0.00,,,0.00,Wunderground v.1.15,2013-07-23 10:23:00,
2013-07-23 06:29:00,66.5,64.4,29.92,NW,317,3.0,4.0,93,0.00,,,0.00,Wunderground v.1.15,2013-07-23 10:29:00,
2013-07-23 06:35:00,66.2,64.4,29.92,NW,318,2.0,4.0,94,0.00,,,0.00,Wunderground v.1.15,2013-07-23 10:35:00,
2013-07-23 06:40:00,66.3,64.5,29.92,NW,319,2.0,2.0,94,0.00,,,0.00,Wunderground v.1.15,2013-07-23 10:40:00,
2013-07-23 06:45:00,66.4,64.6,29.92,NW,319,1.0,2.0,94,0.00,,,0.00,Wunderground v.1.15,2013-07-23 10:45:00,
2013-07-23 06:50:00,66.3,64.5,29.92,NW,319,1.0,2.0,94,0.00,,,0.00,Wunderground v.1.15,2013-07-23 10:50:00,
2013-07-23 06:56:00,66.3,64.5,29.92,NW,313,1.0,4.0,94,0.00,,,0.00,Wunderground v.1.15,2013-07-23 10:56:00,
2013-07-23 07:01:00,66.2,64.4,29.92,NNW,339,2.0,5.0,94,0.00,,,0.00,Wunderground v.1.15,2013-07-23 11:01:00,
2013-07-23 07:06:00,66.4,64.6,29.93,North,349,2.0,5.0,94,0.00,,,0.00,Wunderground v.1.15,2013-07-23 11:06:00,
2013-07-23 07:11:00,66.6,64.8,29.93,NNW,340,3.0,3.0,94,0.00,,,0.00,Wunderground v.1.15,2013-07-23 11:11:00,
2013-07-23 07:17:00,67.2,65.1,29.93,NNW,333,2.0,4.0,93,0.00,,,0.00,Wunderground v.1.15,2013-07-23 11:17:00,
2013-07-23 07:22:00,67.6,65.2,29.93,NNW,333,1.0,2.0,92,0.00,,,0.00,Wunderground v.1.15,2013-07-23 11:22:00,
2013-07-23 07:27:00,67.7,65.3,29.93,NNW,333,1.0,2.0,92,0.00,,,0.00,Wunderground v.1.15,2013-07-23 11:27:00,
2013-07-23 07:32:00,67.8,65.4,29.93,NNW,333,1.0,2.0,92,0.00,,,0.00,Wunderground v.1.15,2013-07-23 11:32:00,
2013-07-23 07:37:00,67.9,65.8,29.93,WNW,296,1.0,4.0,93,0.00,,,0.00,Wunderground v.1.15,2013-07-23 11:37:00,
2013-07-23 07:42:00,68.2,65.8,29.93,NNW,333,2.0,2.0,92,0.00,,,0.00,Wunderground v.1.15,2013-07-23 11:42:00,
2013-07-23 07:48:00,68.5,66.1,29.93,NW,313,2.0,2.0,92,0.00,,,0.00,Wunderground v.1.15,2013-07-23 11:48:00,
2013-07-23 07:54:00,68.8,66.1,29.93,NW,313,1.0,2.0,91,0.00,,,0.00,Wunderground v.1.15,2013-07-23 11:54:00,
2013-07-23 07:59:00,68.9,66.2,29.93,NW,313,1.0,2.0,91,0.00,,,0.00,Wunderground v.1.15,2013-07-23 11:59:00,
2013-07-23 08:04:00,69.2,66.5,29.93,WNW,302,1.0,3.0,91,0.00,,,0.00,Wunderground v.1.15,2013-07-23 12:04:00,
2013-07-23 08:10:00,69.4,66.3,29.93,NNW,336,2.0,2.0,90,0.00,,,0.00,Wunderground v.1.15,2013-07-23 12:10:00,
2013-07-23 08:16:00,69.2,66.1,29.93,NW,325,3.0,5.0,90,0.00,,,0.00,Wunderground v.1.15,2013-07-23 12:16:00,
2013-07-23 08:21:00,69.2,66.1,29.93,NNW,328,4.0,5.0,90,0.00,,,0.00,Wunderground v.1.15,2013-07-23 12:21:00,
2013-07-23 08:26:00,69.3,65.9,29.93,NNW,344,5.0,7.0,89,0.00,,,0.00,Wunderground v.1.15,2013-07-23 12:26:00,
2013-07-23 08:31:00,69.3,65.9,29.93,NNW,331,5.0,6.0,89,0.00,,,0.00,Wunderground v.1.15,2013-07-23 12:31:00,
2013-07-23 08:37:00,69.2,65.8,29.93,NW,325,5.0,8.0,89,0.00,,,0.00,Wunderground v.1.15,2013-07-23 12:37:00,
2013-07-23 08:42:00,69.1,65.7,29.93,WNW,290,5.0,6.0,89,0.00,,,0.00,Wunderground v.1.15,2013-07-23 12:42:00,
2013-07-23 08:47:00,69.0,65.9,29.93,NNW,333,5.0,6.0,90,0.00,,,0.00,Wunderground v.1.15,2013-07-23 12:47:00,
2013-07-23 08:52:00,69.0,65.9,29.93,North,360,4.0,7.0,90,0.00,,,0.00,Wunderground v.1.15,2013-07-23 12:52:00,
2013-07-23 08:58:00,69.0,65.9,29.93,NW,314,5.0,7.0,90,0.00,,,0.00,Wunderground v.1.15,2013-07-23 12:58:00,
2013-07-23 09:03:00,69.2,66.1,29.93,WNW,287,5.0,5.0,90,0.00,,,0.00,Wunderground v.1.15,2013-07-23 13:03:00,
2013-07-23 09:09:00,69.6,66.5,29.93,WNW,289,3.0,6.0,90,0.00,,,0.00,Wunderground v.1.15,2013-07-23 13:09:00,
2013-07-23 09:14:00,70.2,66.8,29.93,WNW,284,3.0,4.0,89,0.00,,,0.00,Wunderground v.1.15,2013-07-23 13:14:00,
2013-07-23 09:19:00,70.7,66.6,29.93,West,276,4.0,5.0,87,0.00,,,0.00,Wunderground v.1.15,2013-07-23 13:19:00,
2013-07-23 09:24:00,71.1,67.0,29.93,West,269,4.0,5.0,87,0.00,,,0.00,Wunderground v.1.15,2013-07-23 13:24:00,
2013-07-23 09:30:00,71.4,67.0,29.93,WNW,284,4.0,4.0,86,0.00,,,0.00,Wunderground v.1.15,2013-07-23 13:30:00,
2013-07-23 09:35:00,71.7,67.3,29.93,WNW,299,4.0,5.0,86,0.00,,,0.00,Wunderground v.1.15,2013-07-23 13:35:00,
2013-07-23 09:41:00,72.1,67.3,29.93,WNW,292,4.0,4.0,85,0.00,,,0.00,Wunderground v.1.15,2013-07-23 13:41:00,
2013-07-23 09:46:00,72.4,67.3,29.93,NNW,330,4.0,7.0,84,0.00,,,0.00,Wunderground v.1.15,2013-07-23 13:46:00,
2013-07-23 09:51:00,72.8,67.7,29.93,WNW,286,5.0,5.0,84,0.00,,,0.00,Wunderground v.1.15,2013-07-23 13:51:00,
2013-07-23 09:56:00,73.0,67.5,29.93,NW,323,4.0,6.0,83,0.00,,,0.00,Wunderground v.1.15,2013-07-23 13:56:00,
2013-07-23 10:01:00,73.1,67.6,29.93,NW,325,3.0,3.0,83,0.00,,,0.00,Wunderground v.1.15,2013-07-23 14:01:00,
2013-07-23 10:06:00,73.2,66.7,29.94,NNW,328,1.0,3.0,80,0.00,,,0.00,Wunderground v.1.15,2013-07-23 14:06:00,
2013-07-23 10:12:00,73.2,66.7,29.94,NW,323,3.0,7.0,80,0.00,,,0.00,Wunderground v.1.15,2013-07-23 14:12:00,
2013-07-23 10:17:00,73.0,66.8,29.94,NW,317,4.0,7.0,81,0.00,,,0.00,Wunderground v.1.15,2013-07-23 14:17:00,
2013-07-23 10:22:00,73.5,67.7,29.94,WNW,302,4.0,5.0,82,0.00,,,0.00,Wunderground v.1.15,2013-07-23 14:22:00,
2013-07-23 10:27:00,73.7,67.1,29.94,WNW,284,5.0,5.0,80,0.00,,,0.00,Wunderground v.1.15,2013-07-23 14:27:00,
2013-07-23 10:33:00,73.5,66.9,29.94,West,275,6.0,12.0,80,0.00,,,0.00,Wunderground v.1.15,2013-07-23 14:33:00,
2013-07-23 10:38:00,73.4,67.2,29.94,NW,315,7.0,12.0,81,0.00,,,0.00,Wunderground v.1.15,2013-07-23 14:38:00,
2013-07-23 10:43:00,73.5,66.9,29.94,WNW,286,6.0,9.0,80,0.00,,,0.00,Wunderground v.1.15,2013-07-23 14:43:00,
2013-07-23 10:48:00,73.7,67.5,29.94,NW,304,5.0,9.0,81,0.00,,,0.00,Wunderground v.1.15,2013-07-23 14:48:00,
2013-07-23 10:53:00,74.1,67.5,29.95,WNW,292,5.0,7.0,80,0.00,,,0.00,Wunderground v.1.15,2013-07-23 14:53:00,
2013-07-23 10:58:00,74.4,67.5,29.95,NW,313,4.0,9.0,79,0.00,,,0.00,Wunderground v.1.15,2013-07-23 14:58:00,
2013-07-23 11:04:00,74.3,67.0,29.95,NW,321,6.0,9.0,78,0.00,,,0.00,Wunderground v.1.15,2013-07-23 15:04:00,
2013-07-23 11:09:00,74.3,66.2,29.95,NNW,346,7.0,11.0,76,0.00,,,0.00,Wunderground v.1.15,2013-07-23 15:09:00,
2013-07-23 11:14:00,74.4,66.7,29.96,NNW,342,7.0,8.0,77,0.00,,,0.00,Wunderground v.1.15,2013-07-23 15:14:00,
2013-07-23 11:19:00,74.2,65.8,29.96,NW,306,7.0,9.0,75,0.00,,,0.00,Wunderground v.1.15,2013-07-23 15:19:00,
2013-07-23 11:24:00,74.4,66.7,29.97,NNW,332,7.0,7.0,77,0.00,,,0.00,Wunderground v.1.15,2013-07-23 15:24:00,
2013-07-23 11:30:00,74.8,66.7,29.96,WNW,301,6.0,6.0,76,0.00,,,0.00,Wunderground v.1.15,2013-07-23 15:30:00,
2013-07-23 11:35:00,74.9,66.4,29.96,WNW,294,6.0,8.0,75,0.00,,,0.00,Wunderground v.1.15,2013-07-23 15:35:00,
2013-07-23 11:40:00,74.9,66.4,29.96,NW,323,7.0,7.0,75,0.00,,,0.00,Wunderground v.1.15,2013-07-23 15:40:00,
2013-07-23 11:46:00,75.0,66.1,29.96,West,273,7.0,8.0,74,0.00,,,0.00,Wunderground v.1.15,2013-07-23 15:46:00,
2013-07-23 11:51:00,75.4,66.9,29.96,WNW,286,6.0,12.0,75,0.00,,,0.00,Wunderground v.1.15,2013-07-23 15:51:00,
2013-07-23 11:56:00,75.7,66.4,29.96,WNW,300,7.0,12.0,73,0.00,,,0.00,Wunderground v.1.15,2013-07-23 15:56:00,
2013-07-23 12:01:00,75.9,66.2,29.96,WNW,300,7.0,9.0,72,0.00,,,0.00,Wunderground v.1.15,2013-07-23 16:01:00,
2013-07-23 12:07:00,76.3,66.6,29.96,NW,312,6.0,10.0,72,0.00,,,0.00,Wunderground v.1.15,2013-07-23 16:07:00,
2013-07-23 12:13:00,76.6,66.9,29.96,West,279,7.0,8.0,72,0.00,,,0.00,Wunderground v.1.15,2013-07-23 16:13:00,
2013-07-23 12:18:00,76.9,67.2,29.96,WNW,302,7.0,9.0,72,0.00,,,0.00,Wunderground v.1.15,2013-07-23 16:18:00,
2013-07-23 12:23:00,76.7,67.0,29.97,NNW,329,8.0,11.0,72,0.00,,,0.00,Wunderground v.1.15,2013-07-23 16:23:00,
2013-07-23 12:28:00,76.9,66.0,29.97,NNW,345,7.0,11.0,69,0.00,,,0.00,Wunderground v.1.15,2013-07-23 16:28:00,
2013-07-23 12:33:00,77.0,66.0,29.97,WNW,302,7.0,13.0,69,0.00,,,0.00,Wunderground v.1.15,2013-07-23 16:33:00,
2013-07-23 12:39:00,77.0,66.5,29.97,NW,310,7.0,13.0,70,0.00,,,0.00,Wunderground v.1.15,2013-07-23 16:39:00,
2013-07-23 12:44:00,77.2,67.1,29.97,NNW,329,6.0,7.0,71,0.00,,,0.00,Wunderground v.1.15,2013-07-23 16:44:00,
2013-07-23 12:49:00,77.4,67.7,29.96,WNW,300,6.0,11.0,72,0.00,,,0.00,Wunderground v.1.15,2013-07-23 16:49:00,
2013-07-23 12:54:00,77.6,64.9,29.96,WNW,292,6.0,7.0,65,0.00,,,0.00,Wunderground v.1.15,2013-07-23 16:54:00,
2013-07-23 12:59:00,77.7,66.3,29.96,West,274,6.0,8.0,68,0.00,,,0.00,Wunderground v.1.15,2013-07-23 16:59:00,
2013-07-23 13:04:00,77.9,66.9,29.96,NNW,333,7.0,10.0,69,0.00,,,0.00,Wunderground v.1.15,2013-07-23 17:04:00,
2013-07-23 13:09:00,78.0,65.3,29.96,WNW,295,7.0,13.0,65,0.00,,,0.00,Wunderground v.1.15,2013-07-23 17:09:00,
2013-07-23 13:15:00,77.8,66.0,29.95,WNW,299,8.0,9.0,67,0.00,,,0.00,Wunderground v.1.15,2013-07-23 17:15:00,
2013-07-23 13:20:00,78.2,67.2,29.95,NNW,332,6.0,7.0,69,0.00,,,0.00,Wunderground v.1.15,2013-07-23 17:20:00,
2013-07-23 13:25:00,78.4,66.5,29.95,WNW,295,5.0,10.0,67,0.00,,,0.00,Wunderground v.1.15,2013-07-23 17:25:00,
2013-07-23 13:30:00,78.6,66.3,29.95,West,273,6.0,6.0,66,0.00,,,0.00,Wunderground v.1.15,2013-07-23 17:30:00,
2013-07-23 13:35:00,78.9,65.7,29.94,SW,236,6.0,9.0,64,0.00,,,0.00,Wunderground v.1.15,2013-07-23 17:35:00,
2013-07-23 13:41:00,79.3,67.4,29.94,West,271,5.0,6.0,67,0.00,,,0.00,Wunderground v.1.15,2013-07-23 17:41:00,
2013-07-23 13:46:00,79.5,66.7,29.93,West,261,5.0,8.0,65,0.00,,,0.00,Wunderground v.1.15,2013-07-23 17:46:00,
2013-07-23 13:51:00,79.5,66.3,29.93,NW,305,6.0,6.0,64,0.00,,,0.00,Wunderground v.1.15,2013-07-23 17:51:00,
2013-07-23 13:56:00,79.8,65.6,29.93,WNW,283,5.0,7.0,62,0.00,,,0.00,Wunderground v.1.15,2013-07-23 17:56:00,
2013-07-23 14:02:00,80.1,67.7,29.92,NNW,346,4.0,5.0,66,0.00,,,0.00,Wunderground v.1.15,2013-07-23 18:02:00,
2013-07-23 14:08:00,79.8,65.2,29.92,North,351,5.0,7.0,61,0.00,,,0.00,Wunderground v.1.15,2013-07-23 18:08:00,
2013-07-23 14:13:00,79.9,65.7,29.92,WSW,237,5.0,5.0,62,0.00,,,0.00,Wunderground v.1.15,2013-07-23 18:13:00,
2013-07-23 14:18:00,80.1,65.4,29.91,NW,317,5.0,7.0,61,0.00,,,0.00,Wunderground v.1.15,2013-07-23 18:18:00,
2013-07-23 14:23:00,80.1,65.4,29.92,NW,308,5.0,8.0,61,0.00,,,0.00,Wunderground v.1.15,2013-07-23 18:23:00,
2013-07-23 14:29:00,79.9,65.2,29.91,NW,317,5.0,8.0,61,0.00,,,0.00,Wunderground v.1.15,2013-07-23 18:29:00,
2013-07-23 14:34:00,80.0,65.8,29.91,NNW,345,6.0,7.0,62,0.00,,,0.00,Wunderground v.1.15,2013-07-23 18:34:00,
2013-07-23 14:39:00,80.3,65.6,29.91,West,259,5.0,7.0,61,0.00,,,0.00,Wunderground v.1.15,2013-07-23 18:39:00,
2013-07-23 14:44:00,80.3,67.0,29.91,West,271,5.0,9.0,64,0.00,,,0.00,Wunderground v.1.15,2013-07-23 18:44:00,
2013-07-23 14:49:00,80.6,66.8,29.91,NE,34,5.0,9.0,63,0.00,,,0.00,Wunderground v.1.15,2013-07-23 18:49:00,
2013-07-23 14:54:00,81.4,66.7,29.91,NNW,335,3.0,7.0,61,0.00,,,0.00,Wunderground v.1.15,2013-07-23 18:54:00,
2013-07-23 15:00:00,81.2,66.5,29.91,NNW,335,5.0,5.0,61,0.00,,,0.00,Wunderground v.1.15,2013-07-23 19:00:00,
2013-07-23 15:05:00,80.8,66.6,29.90,NNW,329,5.0,7.0,62,0.00,,,0.00,Wunderground v.1.15,2013-07-23 19:05:00,
2013-07-23 15:11:00,81.1,67.3,29.90,WNW,298,4.0,5.0,63,0.00,,,0.00,Wunderground v.1.15,2013-07-23 19:11:00,
2013-07-23 15:17:00,81.4,66.7,29.90,West,267,3.0,6.0,61,0.00,,,0.00,Wunderground v.1.15,2013-07-23 19:17:00,
2013-07-23 15:22:00,81.4,67.1,29.90,NW,319,4.0,5.0,62,0.00,,,0.00,Wunderground v.1.15,2013-07-23 19:22:00,
2013-07-23 15:28:00,81.4,66.2,29.90,West,281,4.0,6.0,60,0.00,,,0.00,Wunderground v.1.15,2013-07-23 19:28:00,
2013-07-23 15:33:00,81.4,67.6,29.90,NNW,329,3.0,7.0,63,0.00,,,0.00,Wunderground v.1.15,2013-07-23 19:33:00,
2013-07-23 15:39:00,81.8,67.5,29.89,West,276,3.0,7.0,62,0.00,,,0.00,Wunderground v.1.15,2013-07-23 19:39:00,
2013-07-23 15:45:00,81.7,67.4,29.89,NNW,335,3.0,7.0,62,0.00,,,0.00,Wunderground v.1.15,2013-07-23 19:45:00,
2013-07-23 15:51:00,82.5,68.2,29.89,West,277,2.0,4.0,62,0.00,,,0.00,Wunderground v.1.15,2013-07-23 19:51:00,
2013-07-23 15:57:00,82.9,67.6,29.88,NNW,331,3.0,5.0,60,0.00,,,0.00,Wunderground v.1.15,2013-07-23 19:57:00,
2013-07-23 16:03:00,82.2,66.0,29.88,North,5,4.0,6.0,58,0.00,,,0.00,Wunderground v.1.15,2013-07-23 20:03:00,
2013-07-23 16:08:00,82.0,67.2,29.88,West,281,4.0,7.0,61,0.00,,,0.00,Wunderground v.1.15,2013-07-23 20:08:00,
2013-07-23 16:13:00,82.1,66.4,29.88,NNW,331,4.0,6.0,59,0.00,,,0.00,Wunderground v.1.15,2013-07-23 20:13:00,
2013-07-23 16:18:00,81.8,66.6,29.87,North,349,4.0,6.0,60,0.00,,,0.00,Wunderground v.1.15,2013-07-23 20:18:00,
2013-07-23 16:23:00,81.5,67.7,29.87,WNW,292,4.0,6.0,63,0.00,,,0.00,Wunderground v.1.15,2013-07-23 20:23:00,
2013-07-23 16:29:00,81.9,68.1,29.88,WNW,295,3.0,6.0,63,0.00,,,0.00,Wunderground v.1.15,2013-07-23 20:29:00,
2013-07-23 16:35:00,82.4,67.1,29.87,NW,324,3.0,6.0,60,0.00,,,0.00,Wunderground v.1.15,2013-07-23 20:35:00,
2013-07-23 16:41:00,81.9,67.1,29.87,WNW,285,4.0,5.0,61,0.00,,,0.00,Wunderground v.1.15,2013-07-23 20:41:00,
2013-07-23 16:46:00,81.6,66.8,29.86,WNW,292,4.0,5.0,61,0.00,,,0.00,Wunderground v.1.15,2013-07-23 20:46:00,
2013-07-23 16:52:00,80.9,65.7,29.87,West,259,3.0,4.0,60,0.00,,,0.00,Wunderground v.1.15,2013-07-23 20:52:00,
2013-07-23 16:57:00,81.0,66.3,29.86,SW,223,2.0,4.0,61,0.00,,,0.00,Wunderground v.1.15,2013-07-23 20:57:00,
2013-07-23 17:04:00,81.2,66.0,29.86,SSW,213,3.0,7.0,60,0.00,,,0.00,Wunderground v.1.15,2013-07-23 21:04:00,
2013-07-23 17:09:00,81.5,66.8,29.86,SSW,209,3.0,7.0,61,0.00,,,0.00,Wunderground v.1.15,2013-07-23 21:09:00,
2013-07-23 17:14:00,82.6,67.8,29.86,SSW,212,2.0,3.0,61,0.00,,,0.00,Wunderground v.1.15,2013-07-23 21:14:00,
2013-07-23 17:19:00,83.3,67.0,29.86,SW,219,1.0,5.0,58,0.00,,,0.00,Wunderground v.1.15,2013-07-23 21:19:00,
2013-07-23 17:25:00,82.9,69.0,29.86,SSE,153,3.0,5.0,63,0.00,,,0.00,Wunderground v.1.15,2013-07-23 21:25:00,
2013-07-23 17:30:00,82.2,69.3,29.86,SSE,162,4.0,4.0,65,0.00,,,0.00,Wunderground v.1.15,2013-07-23 21:30:00,
2013-07-23 17:35:00,81.5,69.5,29.86,SSE,153,4.0,6.0,67,0.00,,,0.00,Wunderground v.1.15,2013-07-23 21:35:00,
2013-07-23 17:40:00,80.9,69.3,29.86,SSE,163,3.0,3.0,68,0.00,,,0.00,Wunderground v.1.15,2013-07-23 21:40:00,
2013-07-23 17:45:00,80.6,70.3,29.86,South,169,2.0,3.0,71,0.00,,,0.00,Wunderground v.1.15,2013-07-23 21:45:00,
2013-07-23 17:51:00,80.2,69.9,29.86,SSW,207,3.0,6.0,71,0.00,,,0.00,Wunderground v.1.15,2013-07-23 21:51:00,
2013-07-23 17:56:00,80.1,70.7,29.86,WSW,246,4.0,6.0,73,0.00,,,0.00,Wunderground v.1.15,2013-07-23 21:56:00,
2013-07-23 18:01:00,79.8,70.4,29.86,SSE,161,4.0,4.0,73,0.00,,,0.00,Wunderground v.1.15,2013-07-23 22:01:00,
2013-07-23 18:06:00,79.7,70.3,29.85,SSE,154,3.0,4.0,73,0.00,,,0.00,Wunderground v.1.15,2013-07-23 22:06:00,
2013-07-23 18:11:00,79.9,70.5,29.85,SSW,196,3.0,5.0,73,0.00,,,0.00,Wunderground v.1.15,2013-07-23 22:11:00,
2013-07-23 18:17:00,79.6,71.0,29.86,South,189,4.0,7.0,75,0.00,,,0.00,Wunderground v.1.15,2013-07-23 22:17:00,
2013-07-23 18:23:00,79.5,70.9,29.85,SSE,151,4.0,7.0,75,0.00,,,0.00,Wunderground v.1.15,2013-07-23 22:23:00,
2013-07-23 18:28:00,79.0,70.4,29.85,SE,142,4.0,7.0,75,0.00,,,0.00,Wunderground v.1.15,2013-07-23 22:28:00,
2013-07-23 18:33:00,78.8,70.6,29.85,SSW,202,5.0,10.0,76,0.00,,,0.00,Wunderground v.1.15,2013-07-23 22:33:00,
2013-07-23 18:40:00,78.7,70.9,29.85,SSW,205,7.0,8.0,77,0.00,,,0.00,Wunderground v.1.15,2013-07-23 22:40:00,
2013-07-23 18:46:00,78.6,71.2,29.85,South,187,6.0,8.0,78,0.00,,,0.00,Wunderground v.1.15,2013-07-23 22:46:00,
2013-07-23 18:51:00,78.2,71.2,29.85,South,182,6.0,6.0,79,0.00,,,0.00,Wunderground v.1.15,2013-07-23 22:51:00,
2013-07-23 18:56:00,78.0,71.0,29.85,SSE,157,5.0,7.0,79,0.00,,,0.00,Wunderground v.1.15,2013-07-23 22:56:00,
2013-07-23 19:01:00,77.8,71.1,29.85,South,182,4.0,4.0,80,0.00,,,0.00,Wunderground v.1.15,2013-07-23 23:01:00,
2013-07-23 19:06:00,77.7,71.0,29.84,SSE,161,3.0,4.0,80,0.00,,,0.00,Wunderground v.1.15,2013-07-23 23:06:00,
2013-07-23 19:11:00,77.4,71.5,29.84,SSE,156,2.0,2.0,82,0.00,,,0.00,Wunderground v.1.15,2013-07-23 23:11:00,
2013-07-23 19:16:00,77.2,71.3,29.85,SSE,155,2.0,3.0,82,0.00,,,0.00,Wunderground v.1.15,2013-07-23 23:16:00,
2013-07-23 19:21:00,77.0,71.4,29.85,SSW,192,2.0,2.0,83,0.00,,,0.00,Wunderground v.1.15,2013-07-23 23:21:00,
2013-07-23 19:27:00,77.0,71.4,29.85,SSW,192,1.0,2.0,83,0.00,,,0.00,Wunderground v.1.15,2013-07-23 23:27:00,
2013-07-23 19:32:00,76.9,71.7,29.85,South,191,0.0,2.0,84,0.00,,,0.00,Wunderground v.1.15,2013-07-23 23:32:00,
2013-07-23 19:37:00,76.7,71.8,29.85,SSW,192,1.0,2.0,85,0.00,,,0.00,Wunderground v.1.15,2013-07-23 23:37:00,
2013-07-23 19:43:00,76.4,71.9,29.85,SE,135,1.0,2.0,86,0.00,,,0.00,Wunderground v.1.15,2013-07-23 23:43:00,
2013-07-23 19:49:00,76.1,71.6,29.85,SSW,205,1.0,5.0,86,0.00,,,0.00,Wunderground v.1.15,2013-07-23 23:49:00,
2013-07-23 19:55:00,76.0,71.8,29.85,SSW,194,3.0,5.0,87,0.00,,,0.00,Wunderground v.1.15,2013-07-23 23:55:00,
2013-07-23 20:00:00,76.0,71.8,29.85,SSW,194,2.0,2.0,87,0.00,,,0.00,Wunderground v.1.15,2013-07-24 00:00:00,
2013-07-23 20:05:00,75.8,72.3,29.85,West,273,1.0,2.0,89,0.00,,,0.00,Wunderground v.1.15,2013-07-24 00:05:00,
2013-07-23 20:11:00,75.0,71.2,29.85,West,277,3.0,4.0,88,0.00,,,0.01,Wunderground v.1.15,2013-07-24 00:11:00,
2013-07-23 20:16:00,74.0,70.6,29.85,SW,217,4.0,8.0,89,0.00,,,0.01,Wunderground v.1.15,2013-07-24 00:16:00,
2013-07-23 20:21:00,73.3,70.5,29.86,SW,221,5.0,7.0,91,0.00,,,0.01,Wunderground v.1.15,2013-07-24 00:21:00,
2013-07-23 20:26:00,72.8,70.0,29.86,WSW,246,5.0,7.0,91,0.00,,,0.01,Wunderground v.1.15,2013-07-24 00:26:00,
2013-07-23 20:31:00,72.6,70.1,29.86,SW,224,3.0,3.0,92,0.00,,,0.01,Wunderground v.1.15,2013-07-24 00:31:00,
2013-07-23 20:36:00,72.5,70.0,29.86,SW,224,1.0,3.0,92,0.00,,,0.01,Wunderground v.1.15,2013-07-24 00:36:00,
2013-07-23 20:41:00,72.4,69.9,29.86,SSW,213,0.0,3.0,92,0.00,,,0.01,Wunderground v.1.15,2013-07-24 00:41:00,
2013-07-23 20:46:00,72.2,69.4,29.87,WNW,284,1.0,3.0,91,0.00,,,0.01,Wunderground v.1.15,2013-07-24 00:46:00,
2013-07-23 20:52:00,71.7,69.3,29.86,WNW,291,2.0,3.0,92,0.00,,,0.01,Wunderground v.1.15,2013-07-24 00:52:00,
2013-07-23 20:57:00,71.3,69.2,29.86,WNW,291,1.0,3.0,93,0.00,,,0.01,Wunderground v.1.15,2013-07-24 00:57:00,
2013-07-23 21:02:00,71.0,68.9,29.87,WNW,291,1.0,2.0,93,0.00,,,0.01,Wunderground v.1.15,2013-07-24 01:02:00,
2013-07-23 21:08:00,70.7,68.9,29.87,SW,217,1.0,4.0,94,0.00,,,0.01,Wunderground v.1.15,2013-07-24 01:08:00,
2013-07-23 21:13:00,70.5,68.7,29.87,SW,217,1.0,2.0,94,0.00,,,0.01,Wunderground v.1.15,2013-07-24 01:13:00,
2013-07-23 21:18:00,70.3,68.5,29.87,SW,218,1.0,4.0,94,0.00,,,0.01,Wunderground v.1.15,2013-07-24 01:18:00,
2013-07-23 21:24:00,70.1,68.6,29.87,SW,220,2.0,2.0,95,0.00,,,0.01,Wunderground v.1.15,2013-07-24 01:24:00,
2013-07-23 21:29:00,69.9,68.1,29.87,WNW,299,1.0,4.0,94,0.00,,,0.01,Wunderground v.1.15,2013-07-24 01:29:00,
2013-07-23 21:35:00,69.9,68.1,29.88,SW,219,1.0,5.0,94,0.00,,,0.01,Wunderground v.1.15,2013-07-24 01:35:00,
2013-07-23 21:40:00,70.0,68.5,29.88,SSW,199,2.0,2.0,95,0.00,,,0.01,Wunderground v.1.15,2013-07-24 01:40:00,
2013-07-23 21:45:00,69.9,68.4,29.88,South,180,2.0,3.0,95,0.00,,,0.01,Wunderground v.1.15,2013-07-24 01:45:00,
2013-07-23 21:50:00,69.8,68.3,29.88,South,180,1.0,1.0,95,0.00,,,0.01,Wunderground v.1.15,2013-07-24 01:50:00,
2013-07-23 21:55:00,69.7,68.2,29.88,South,179,1.0,2.0,95,0.00,,,0.01,Wunderground v.1.15,2013-07-24 01:55:00,
2013-07-23 22:00:00,69.6,68.4,29.89,South,179,1.0,1.0,96,0.00,,,0.01,Wunderground v.1.15,2013-07-24 02:00:00,
2013-07-23 22:05:00,69.4,67.9,29.89,South,179,1.0,2.0,95,0.00,,,0.01,Wunderground v.1.15,2013-07-24 02:05:00,
2013-07-23 22:11:00,69.3,67.8,29.89,South,179,0.0,2.0,95,0.00,,,0.01,Wunderground v.1.15,2013-07-24 02:11:00,
2013-07-23 22:16:00,69.2,67.7,29.89,South,179,0.0,2.0,95,0.00,,,0.01,Wunderground v.1.15,2013-07-24 02:16:00,
2013-07-23 22:21:00,69.1,67.6,29.89,South,179,0.0,2.0,95,0.00,,,0.01,Wunderground v.1.15,2013-07-24 02:21:00,
2013-07-23 22:27:00,68.9,67.4,29.90,South,179,0.0,2.0,95,0.00,,,0.01,Wunderground v.1.15,2013-07-24 02:27:00,
2013-07-23 22:33:00,68.8,67.3,29.90,South,179,1.0,4.0,95,0.00,,,0.01,Wunderground v.1.15,2013-07-24 02:33:00,
2013-07-23 22:38:00,68.5,67.0,29.89,South,180,2.0,4.0,95,0.00,,,0.01,Wunderground v.1.15,2013-07-24 02:38:00,
2013-07-23 22:43:00,68.3,66.8,29.89,South,180,2.0,2.0,95,0.00,,,0.01,Wunderground v.1.15,2013-07-24 02:43:00,
2013-07-23 22:49:00,68.2,66.7,29.89,South,180,0.0,2.0,95,0.00,,,0.01,Wunderground v.1.15,2013-07-24 02:49:00,
2013-07-23 22:54:00,68.1,66.6,29.90,South,180,0.0,2.0,95,0.00,,,0.01,Wunderground v.1.15,2013-07-24 02:54:00,
2013-07-23 23:00:00,68.1,66.9,29.90,South,180,0.0,0.0,96,0.00,,,0.01,Wunderground v.1.15,2013-07-24 03:00:00,
2013-07-23 23:06:00,68.0,66.8,29.90,South,180,0.0,0.0,96,0.00,,,0.01,Wunderground v.1.15,2013-07-24 03:06:00,
2013-07-23 23:11:00,68.0,66.8,29.90,South,180,0.0,0.0,96,0.00,,,0.01,Wunderground v.1.15,2013-07-24 03:11:00,
2013-07-23 23:17:00,67.8,66.6,29.90,South,180,0.0,0.0,96,0.00,,,0.01,Wunderground v.1.15,2013-07-24 03:17:00,
2013-07-23 23:22:00,67.6,66.4,29.90,South,180,0.0,0.0,96,0.00,,,0.01,Wunderground v.1.15,2013-07-24 03:22:00,
2013-07-23 23:27:00,67.5,66.3,29.90,South,180,0.0,1.0,96,0.00,,,0.01,Wunderground v.1.15,2013-07-24 03:27:00,
2013-07-23 23:34:00,67.3,66.4,29.90,South,180,0.0,2.0,97,0.00,,,0.01,Wunderground v.1.15,2013-07-24 03:34:00,
2013-07-23 23:39:00,67.2,66.3,29.90,South,180,0.0,2.0,97,0.00,,,0.01,Wunderground v.1.15,2013-07-24 03:39:00,
2013-07-23 23:45:00,67.0,66.1,29.90,South,180,0.0,2.0,97,0.00,,,0.01,Wunderground v.1.15,2013-07-24 03:45:00,
2013-07-23 23:50:00,66.9,66.0,29.89,South,180,0.0,2.0,97,0.00,,,0.01,Wunderground v.1.15,2013-07-24 03:50:00,
2013-07-23 23:55:00,66.9,66.3,29.89,South,180,0.0,2.0,98,0.00,,,0.01,Wunderground v.1.15,2013-07-24 03:55:00,